Flag for Portugal Weather past 2 weeks in Lisbon, Portugal

Now
68 °F

Passing clouds.


Feels Like: 68 °F
Forecast: 64 / 83 °F
Wind: 12 mph from Northwest

Location: Lisbon Portela Airport

Current Time: Aug 1, 2015 at 9:31:58 AM

Latest Report: Aug 1, 2015 at 9:00 AM


Visibility: N/A

Pressure: 29.95 "Hg

Humidity: 73%

Dew point: 59 °F

Location of LisbonLocation

Historic Weather in Lisbon — Graph

°F

Lisbon temperature yesterday

Maximum temperature yesterday: 77 °F (at 12:30 PM)
Minimum temperature yesterday: 66 °F (at 6:00 AM)
Average temperature yesterday: 71 °F

Past Weeks' High & Low Weather Summary

 TemperatureHumidityPressure
High86 °F (Jul 26, 2:00 PM)94% (Jul 18, 6:00 AM)30.12 "Hg (Jul 18, 6:00 AM)
Low61 °F (Jul 25, 6:00 AM)34% (Jul 23, 2:30 PM)29.83 "Hg (Jul 31, 2:30 AM)
Average73 °F69%30.02 "Hg
* Reported Jul 17 8:00 AM — Aug 1 8:30 AM, Lisbon, Weather by CustomWeather, © 2015

Note: Actual official high and low records may vary slightly from our data, if they occured in-between our weather recording intervals... More about our weather records

Advertising

Lisbon weather history for previous 24 hours

 ConditionsComfort  
Time TempWeatherWind HumidityBarometerVisibility
8:30 AM
Sat, Aug 1
66 °FPassing clouds.13 mph78%29.92 "HgN/A
8:00 AM66 °FPassing clouds.10 mph78%29.92 "HgN/A
7:30 AM64 °FPassing clouds.14 mph83%29.92 "HgN/A
7:00 AM64 °FPassing clouds.13 mph83%29.92 "HgN/A
6:30 AM64 °FPassing clouds.13 mph83%29.89 "HgN/A
6:00 AM64 °FPassing clouds.7 mph83%29.89 "HgN/A
5:30 AM64 °FPassing clouds.15 mph83%29.89 "HgN/A
5:00 AM64 °FPassing clouds.14 mph88%29.92 "HgN/A
4:30 AM64 °FPassing clouds.13 mph88%29.92 "HgN/A
4:00 AM64 °FPassing clouds.14 mph88%29.89 "HgN/A
3:30 AM64 °FPassing clouds.12 mph88%29.92 "HgN/A
3:00 AM64 °FPassing clouds.8 mph88%29.92 "HgN/A
2:30 AM66 °FPassing clouds.8 mph83%29.92 "HgN/A
2:00 AM64 °FPassing clouds.3 mph83%29.92 "HgN/A
1:30 AM64 °FPassing clouds.12 mph83%29.92 "HgN/A
1:00 AM66 °FPassing clouds.10 mph78%29.92 "HgN/A
12:30 AM66 °FPassing clouds.16 mph78%29.95 "HgN/A
12:00 AM66 °FPassing clouds.9 mph78%29.92 "HgN/A
11:30 PM
Fri, Jul 31
66 °FPassing clouds.15 mph78%29.92 "HgN/A
11:00 PM66 °FPassing clouds.14 mph78%29.92 "HgN/A
10:30 PM66 °FPassing clouds.20 mph78%29.92 "HgN/A
10:00 PM66 °FPassing clouds.14 mph78%29.92 "HgN/A
9:30 PM66 °FPartly sunny.18 mph78%29.89 "HgN/A
9:00 PM66 °FScattered clouds.21 mph78%29.89 "HgN/A
8:30 PM66 °FPassing clouds.20 mph78%29.86 "HgN/A
8:00 PM68 °FPassing clouds.17 mph73%29.86 "HgN/A
7:30 PM68 °FPassing clouds.20 mph73%29.86 "HgN/A
7:00 PM70 °FPassing clouds.20 mph69%29.86 "HgN/A
6:30 PM70 °FPassing clouds.21 mph69%29.86 "HgN/A
6:00 PM72 °FPassing clouds.18 mph69%29.86 "HgN/A
5:30 PM72 °FPassing clouds.17 mph69%29.86 "HgN/A
5:00 PM73 °FPassing clouds.18 mph65%29.86 "HgN/A
4:30 PM73 °FPassing clouds.18 mph65%29.86 "HgN/A
4:00 PM75 °FScattered clouds.16 mph61%29.86 "HgN/A
3:30 PM77 °FScattered clouds.13 mph57%29.86 "HgN/A
3:00 PM77 °FPartly sunny.14 mph57%29.86 "HgN/A
2:30 PM77 °FPartly sunny.12 mph57%29.86 "HgN/A
2:00 PM77 °FPartly sunny.10 mph57%29.86 "HgN/A
1:30 PM77 °FPartly sunny.7 mph57%29.86 "HgN/A
1:00 PM77 °FBroken clouds.9 mph54%29.86 "HgN/A
12:30 PM77 °FScattered clouds.6 mph54%29.86 "HgN/A
12:00 PM75 °FBroken clouds.7 mph57%29.86 "HgN/A
11:30 AM75 °FPartly sunny.8 mph57%29.86 "HgN/A
11:00 AM72 °FPartly sunny.6 mph65%29.86 "HgN/A
10:30 AM70 °FPartly sunny.6 mph73%29.86 "HgN/A
10:00 AM72 °FPartly sunny.7 mph69%29.86 "HgN/A
9:30 AM72 °FPartly sunny.6 mph69%29.86 "HgN/A
Weather by CustomWeather, © 2015

See weather overviewHow to use our weather pages